This is the latest recevied weather packets stored in our database for station/object KE3HG-2. If no packets are shown the sender has not sent any weather packets the latest 10 day(s).
| Time | Temp. | Humidity | Pressure | Rain* | Wind** | Luminosity | Snow |
|---|---|---|---|---|---|---|---|
| 1777778658 | 9.44° C | 43% | 757.5 hPa | 0 mm | - | - | - |
| 1777778056 | 9.44° C | 42% | 757.5 hPa | 0 mm | - | - | - |
| 1777777456 | 10° C | 42% | 757.5 hPa | 0 mm | - | - | - |
| 1777776474 | 10° C | 42% | 757.5 hPa | 0 mm | - | - | - |
| 1777775876 | 9.44° C | 43% | 757.5 hPa | 0 mm | - | - | - |
| 1777775273 | 9.44° C | 43% | 757.5 hPa | 0 mm | - | - | - |
| 1777774298 | 9.44° C | 43% | 757.5 hPa | 0 mm | - | - | - |
| 1777773699 | 9.44° C | 43% | 757.5 hPa | 0 mm | - | - | - |
| 1777773099 | 10° C | 43% | 757.5 hPa | 0 mm | - | - | - |
| 1777772129 | 10.56° C | 43% | 757.5 hPa | 0 mm | - | - | - |
| 1777771529 | 10.56° C | 39% | 757.5 hPa | 0 mm | - | - | - |
| 1777770930 | 11.11° C | 38% | 757.5 hPa | 0 mm | - | - | - |
| 1777769957 | 11.11° C | 34% | 757.5 hPa | 0 mm | - | - | - |
| 1777769356 | 11.67° C | 34% | 757.5 hPa | 0 mm | - | - | - |
| 1777768756 | 11.67° C | 34% | 757.5 hPa | 0 mm | - | - | - |
| 1777767784 | 11.67° C | 33% | 757.5 hPa | 0 mm | - | - | - |
| 1777767184 | 12.22° C | 33% | 757.5 hPa | 0 mm | - | - | - |
| 1777766584 | 12.22° C | 32% | 757.5 hPa | 0 mm | - | - | - |
| 1777765605 | 12.22° C | 31% | 757.5 hPa | 0 mm | - | - | - |
| 1777765003 | 12.78° C | 31% | 757.5 hPa | 0 mm | - | - | - |
| 1777764403 | 12.78° C | 29% | 757.5 hPa | 0 mm | - | - | - |
| 1777763418 | 13.33° C | 28% | 757.5 hPa | 0 mm | - | - | - |
| 1777762818 | 13.33° C | 27% | 757.5 hPa | 0 mm | - | - | - |
| 1777762218 | 13.33° C | 25% | 757.5 hPa | 0 mm | - | - | - |
| 1777761099 | 13.33° C | 27% | 757.5 hPa | 0 mm | - | - | - |
* Rain latest hour (hover to see other rain measurements)
** Current wind speed in m/s (hover to see current wind gust speed)